Weather History for KRSV - December, 2012

Change the Weather History Date:

Friday, December 14, 2012

  Actual Average (KLWV) Record (KLWV)
Temperature  
Mean Temperature 41 °F 35 °F  
Max Temperature 56 °F 42 °F 60 °F (2006)
Min Temperature 26 °F 27 °F 2 °F (2010)
Degree Days  
Heating Degree Days 24 30  
Month to date heating degree days 391  
Since 1 July heating degree days 1249  
Cooling Degree Days 0 0  
Month to date cooling degree days 0  
Year to date cooling degree days 1387  
Moisture  
Dew Point 29 °F    
Average Humidity 64    
Maximum Humidity 92    
Minimum Humidity 35    
Precipitation  
Precipitation 0.00 in 0.08 in 1.52 in (1977)
Month to date precipitation 1.56  
Year to date precipitation 42.05  
Sea Level Pressure  
Sea Level Pressure 30.21 in    
Wind  
Wind Speed 3 mph (SSE)    
Max Wind Speed 10 mph    
Max Gust Speed -    
Visibility 10 miles    
Events      
T = Trace of Precipitation, MM = Missing Value Source: NWS Daily Summary

Daily Weather History Graph

Daily Weather History Graph

Search for Another Location

Airport or City:

Trip Planner

Search our weather history database for the weather conditions in past years. The results will help you decide how hot, cold, wet, or windy it might be!

Date:

Astronomy

Dec. 14, 2012 Rise Set
Actual Time 7:02 AM CST 4:29 PM CST
Civil Twilight 6:32 AM CST 4:59 PM CST
Nautical Twilight 5:58 AM CST 5:32 PM CST
Astronomical Twilight 5:25 AM CST 6:05 PM CST
Moon 8:06 AM CST (12/14) 6:20 PM CST (12/14)
Length of Visible Light 10h 27m
Length of Day
9h 27m
Waxing Crescent, 3% of the Moon is Illuminated
Dec 14
Waxing Crescent
Dec 19
First Quarter
Dec 28
Full
Jan 4
Last Quarter
Jan 11
New

Hourly Weather History & Observations

Time (CST) Temp. Windchill Dew Point Humidity Pressure Visibility Wind Dir Wind Speed Gust Speed Precip Events Conditions
12:15 AM 33.1 °F 30.0 °F 25.7 °F 74% 30.26 in 10.0 mi South 3.5 mph - N/A   Clear
12:35 AM 36.1 °F 33.5 °F 26.6 °F 68% 30.26 in 10.0 mi SSE 3.5 mph - N/A   Clear
12:55 AM 35.6 °F 32.8 °F 25.9 °F 68% 30.26 in 10.0 mi SSE 3.5 mph - N/A   Clear
1:15 AM 36.7 °F 34.1 °F 25.7 °F 64% 30.27 in 10.0 mi South 3.5 mph - N/A   Clear
1:35 AM 33.1 °F - 25.5 °F 74% 30.28 in 10.0 mi Calm Calm - N/A   Clear
1:55 AM 33.6 °F - 25.7 °F 73% 30.28 in 10.0 mi Calm Calm - N/A   Clear
2:15 AM 32.0 °F - 24.8 °F 75% 30.28 in 10.0 mi Calm Calm - N/A   Clear
2:35 AM 29.3 °F - 25.0 °F 84% 30.28 in 10.0 mi Calm Calm - N/A   Clear
2:55 AM 28.6 °F - 24.6 °F 85% 30.27 in 10.0 mi Calm Calm - N/A   Clear
3:15 AM 28.2 °F - 24.3 °F 85% 30.27 in 10.0 mi Calm Calm - N/A   Clear
3:35 AM 28.4 °F 24.6 °F 24.3 °F 84% 30.27 in 10.0 mi SE 3.5 mph - N/A   Clear
3:55 AM 27.1 °F 23.2 °F 23.9 °F 88% 30.27 in 10.0 mi SE 3.5 mph - N/A   Clear
4:35 AM 27.0 °F 23.0 °F 25.0 °F 92% 30.27 in 10.0 mi SE 3.5 mph - N/A   Clear
5:15 AM 26.4 °F - 24.3 °F 92% 30.27 in 10.0 mi Calm Calm - N/A   Clear
5:35 AM 28.4 °F - 24.4 °F 85% 30.26 in 10.0 mi Calm Calm - N/A   Clear
5:55 AM 29.1 °F - 24.4 °F 83% 30.26 in 10.0 mi Calm Calm - N/A   Clear
6:15 AM 30.2 °F - 24.6 °F 80% 30.27 in 10.0 mi Calm Calm - N/A   Clear
6:35 AM 29.7 °F - 24.4 °F 81% 30.27 in 10.0 mi Calm Calm - N/A   Clear
6:55 AM 30.7 °F 27.3 °F 24.1 °F 76% 30.27 in 10.0 mi South 3.5 mph - N/A   Clear
7:15 AM 30.7 °F - 24.4 °F 77% 30.27 in 10.0 mi Calm Calm - N/A   Clear
7:35 AM 30.7 °F - 25.0 °F 79% 30.26 in 10.0 mi Calm Calm - N/A   Clear
7:55 AM 33.1 °F - 27.3 °F 79% 30.28 in 10.0 mi Calm Calm - N/A   Clear
8:15 AM 36.0 °F 33.3 °F 27.9 °F 72% 30.28 in 10.0 mi SSE 3.5 mph - N/A   Clear
8:35 AM 39.0 °F 34.0 °F 28.8 °F 67% 30.29 in 10.0 mi SSE 6.9 mph - N/A   Clear
8:55 AM 40.5 °F 35.8 °F 28.9 °F 64% 30.29 in 10.0 mi South 6.9 mph - N/A   Clear
9:15 AM 42.6 °F 39.9 °F 29.7 °F 60% 30.29 in 10.0 mi SSE 4.6 mph - N/A   Clear
9:35 AM 44.8 °F 42.4 °F 30.0 °F 56% 30.29 in 10.0 mi SSE 4.6 mph - N/A   Clear
9:55 AM 46.4 °F 43.5 °F 30.9 °F 55% 30.28 in 10.0 mi SE 5.8 mph - N/A   Clear
10:15 AM 48.0 °F - 30.6 °F 51% 30.27 in 10.0 mi SSE 5.8 mph - N/A   Clear
10:35 AM 49.3 °F - 30.2 °F 48% 30.26 in 10.0 mi SSE 8.1 mph - N/A   Clear
10:55 AM 50.4 °F - 29.7 °F 45% 30.25 in 10.0 mi South 10.4 mph - N/A   Clear
11:15 AM 52.2 °F - 30.4 °F 43% 30.24 in 10.0 mi South 8.1 mph - N/A   Clear
11:35 AM 53.1 °F - 29.8 °F 41% 30.22 in 10.0 mi South 8.1 mph - N/A   Clear
11:55 AM 54.0 °F - 29.1 °F 39% 30.21 in 10.0 mi South 10.4 mph - N/A   Clear
12:15 PM 53.8 °F - 28.8 °F 38% 30.20 in 10.0 mi South 6.9 mph - N/A   Clear
12:35 PM 55.2 °F - 30.6 °F 39% 30.19 in 10.0 mi SSE 8.1 mph - N/A   Clear
12:55 PM 55.6 °F - 29.8 °F 37% 30.19 in 10.0 mi South 6.9 mph - N/A   Clear
1:15 PM 55.9 °F - 28.6 °F 35% 30.19 in 10.0 mi South 8.1 mph - N/A   Clear
1:55 PM 56.3 °F - 28.9 °F 35% 30.18 in 10.0 mi SSW 10.4 mph - N/A   Clear
2:33 PM 55.4 °F - 30.2 °F 38% 30.17 in 10.0 mi South 5.8 mph - N/A   Clear
2:35 PM 55.0 °F - 30.9 °F 40% 30.17 in 10.0 mi South 5.8 mph - N/A   Clear
2:55 PM 53.8 °F - 31.5 °F 43% 30.17 in 10.0 mi South 6.9 mph - N/A   Clear
3:35 PM 51.8 °F - 31.6 °F 46% 30.17 in 10.0 mi SSE 6.9 mph - N/A   Clear
3:55 PM 50.9 °F - 31.6 °F 48% 30.16 in 10.0 mi SSE 6.9 mph - N/A   Clear
4:15 PM 48.9 °F - 31.3 °F 51% 30.16 in 10.0 mi SSE 6.9 mph - N/A   Clear
4:35 PM 47.3 °F - 31.3 °F 54% 30.16 in 10.0 mi SSE 4.6 mph - N/A   Clear
4:55 PM 44.4 °F 42.0 °F 30.7 °F 59% 30.16 in 10.0 mi SSE 4.6 mph - N/A   Clear
5:15 PM 41.7 °F 39.8 °F 31.6 °F 67% 30.16 in 10.0 mi SSE 3.5 mph - N/A   Clear
5:35 PM 42.3 °F - 31.3 °F 65% 30.16 in 10.0 mi Calm Calm - N/A   Clear
5:55 PM 42.8 °F 40.1 °F 31.8 °F 65% 30.17 in 10.0 mi SE 4.6 mph - N/A   Clear
6:15 PM 43.0 °F 40.3 °F 32.0 °F 65% 30.16 in 10.0 mi SE 4.6 mph - N/A   Clear
6:35 PM 45.9 °F 43.6 °F 32.0 °F 58% 30.16 in 10.0 mi SE 4.6 mph - N/A   Clear
6:55 PM 42.3 °F 40.5 °F 32.9 °F 69% 30.15 in 10.0 mi ESE 3.5 mph - N/A   Clear
7:35 PM 43.9 °F 40.5 °F 33.8 °F 68% 30.13 in 10.0 mi East 5.8 mph - N/A   Clear
7:55 PM 42.1 °F 39.2 °F 33.4 °F 71% 30.12 in 10.0 mi ESE 4.6 mph - N/A   Clear
8:15 PM 42.1 °F - 33.1 °F 70% 30.13 in 10.0 mi Calm Calm - N/A   Clear
8:35 PM 42.6 °F - 32.9 °F 68% 30.13 in 10.0 mi Calm Calm - N/A   Clear
8:55 PM 42.8 °F - 32.2 °F 66% 30.12 in 10.0 mi Calm Calm - N/A   Clear
9:15 PM 42.8 °F - 32.2 °F 66% 30.12 in 10.0 mi Calm Calm - N/A   Clear
9:35 PM 42.4 °F - 32.7 °F 68% 30.11 in 10.0 mi Calm Calm - N/A   Scattered Clouds
9:55 PM 42.3 °F 40.5 °F 33.8 °F 72% 30.11 in 10.0 mi East 3.5 mph - N/A   Scattered Clouds
10:15 PM 41.9 °F - 34.0 °F 73% 30.11 in 10.0 mi Calm Calm - N/A   Scattered Clouds
10:35 PM 41.4 °F - 34.7 °F 77% 30.11 in 10.0 mi Calm Calm - N/A   Mostly Cloudy
10:55 PM 43.2 °F 41.5 °F 33.6 °F 69% 30.11 in 10.0 mi East 3.5 mph - N/A   Scattered Clouds
11:15 PM 43.3 °F 41.7 °F 33.1 °F 67% 30.11 in 10.0 mi SE 3.5 mph - N/A   Mostly Cloudy
11:35 PM 43.9 °F 40.5 °F 33.6 °F 67% 30.11 in 10.0 mi ESE 5.8 mph - N/A   Mostly Cloudy
11:55 PM 44.4 °F 42.0 °F 33.3 °F 65% 30.10 in 10.0 mi ESE 4.6 mph - N/A   Overcast